Location: Bailleul
(50.3375°N, 2.8513°E)
Time: 04:20:37
(UTC+00:00)

Cosmos 1980 - Pass Details

Date: 30 October 2021
Orbit: 839 x 847 km, 71.0° (Epoch: 01 December)

Event Time Altitude Azimuth Distance (km) Brightness Sun altitude
Rises 20:18:04 0° 225° (SW) 3,383 7.1 -36.6°
Reaches altitude 10° 20:20:34 10° 230° (SW) 2,452 6.3 -37.0°
Enters shadow 20:21:05 13° 232° (SW) 2,267 6.1 -37.1°
